Theta_e
312 316 317 318 318 316 315 316 316 316 315 316 317 317 316 317 316 315 314 311 309 313 316 316 316 317 317 315 311 307 305 305 306 305 303 303 302 301 301 300 299 299 298 297 296 295 295 295 297 298 298 299 302 304 305 305 306 308 310 311 312 312 312 312 312 312 312 310 310 309 308 306 304 304 304 304 304 303 303 303 304 304 304 305 306 306
311 317 319 318 317 315 315 314 314 313 313 314 316 316 316 317 316 314 313 310 309 312 315 314 314 315 316 316 312 307 306 307 307 306 305 303 302 301 301 300 299 298 297 297 296 295 295 295 296 297 297 298 300 302 304 304 306 308 309 310 310 310 311 311 311 312 311 309 308 307 305 303 302 301 301 301 300 300 300 300 300 301 301 301 301 302
315 318 319 316 313 312 312 311 311 312 313 314 315 315 316 317 316 315 312 309 309 312 315 313 313 315 315 316 313 308 307 307 305 305 304 303 302 301 300 300 299 298 297 297 297 296 295 295 296 296 296 297 298 300 302 303 305 307 308 309 308 308 309 310 309 309 308 307 306 304 302 301 300 299 299 298 298 298 299 299 299 299 299 299 299 299
318 317 315 312 311 311 311 309 310 311 312 314 314 315 316 316 316 317 314 310 309 310 312 312 312 315 317 315 312 307 305 304 301 301 302 302 302 301 300 299 299 298 298 297 296 296 296 295 295 295 295 296 297 298 299 301 304 306 306 307 306 306 306 306 306 306 305 304 303 302 300 299 298 297 298 298 298 298 298 298 298 298 298 298 298 298
319 314 309 309 311 312 312 309 310 312 313 314 314 315 316 316 315 316 314 311 310 310 309 311 316 318 318 317 313 306 301 302 300 300 300 300 300 300 299 298 298 298 298 297 296 296 296 295 295 294 294 295 295 296 298 300 302 303 304 304 304 303 303 303 303 302 301 301 300 299 298 297 296 296 295 295 294 295 295 295 295 295 295 295 295 295
317 310 307 309 310 312 313 311 312 314 315 316 315 314 314 314 314 314 314 313 315 317 311 312 321 323 316 316 314 307 303 303 301 300 301 301 299 298 298 298 298 297 297 296 296 296 295 295 294 293 294 294 294 295 297 298 300 301 301 302 302 301 301 301 300 300 299 299 298 297 296 295 294 292 291 290 290 290 290 291 291 291 291 291 291 291
314 308 309 312 311 312 314 313 313 314 315 317 317 314 312 313 314 314 314 315 319 321 312 309 319 322 317 316 314 308 306 306 303 302 302 301 299 299 299 299 298 296 296 296 295 295 295 294 294 294 293 293 293 294 296 297 298 299 300 301 301 300 300 300 300 300 299 298 297 297 296 295 292 290 288 288 288 288 288 288 288 288 288 288 288 288
312 310 312 313 313 313 314 314 313 312 315 320 317 314 311 311 313 314 314 316 318 318 312 310 315 318 318 319 314 307 308 309 306 304 302 301 300 299 299 299 298 297 296 296 295 295 295 294 294 293 292 291 292 293 295 296 298 299 300 300 300 300 299 299 299 299 299 298 298 297 296 294 291 289 288 287 287 287 287 287 286 286 287 287 287 287
313 314 314 314 314 314 315 317 314 311 316 318 313 311 311 312 314 314 315 316 315 315 317 315 313 317 320 318 314 309 310 313 312 308 304 302 301 300 299 298 297 297 296 296 295 295 294 293 292 292 291 290 291 292 293 295 297 298 299 299 299 299 299 298 298 298 297 297 296 295 295 292 289 288 287 286 287 286 286 286 286 286 286 286 286 286
312 311 311 313 315 315 316 314 312 313 316 313 309 309 310 311 312 313 315 316 313 315 321 318 314 318 321 319 315 312 312 315 314 310 306 303 302 300 300 298 297 296 296 296 295 295 294 293 291 290 290 290 290 291 292 294 295 296 297 298 298 298 298 297 297 297 296 295 295 294 293 291 289 287 287 286 286 286 286 286 286 285 285 285 285 285
308 305 307 312 314 313 311 307 307 312 312 309 310 312 312 311 311 312 312 313 315 318 320 318 315 318 320 319 317 316 314 313 313 309 305 303 302 301 299 298 297 296 296 295 295 294 293 291 290 290 289 289 289 289 290 292 293 294 295 296 297 297 296 296 295 295 294 293 293 292 292 291 289 288 287 286 286 286 286 286 285 285 285 285 285 285
309 308 310 311 309 309 310 308 306 306 306 309 313 314 316 315 312 313 313 312 319 322 316 311 312 315 319 319 316 316 312 309 310 309 306 304 302 300 299 298 297 296 296 295 294 294 292 291 290 290 290 289 288 288 289 290 291 292 293 294 295 295 294 294 293 293 292 292 292 291 290 290 288 288 287 286 286 286 285 285 285 285 284 284 284 284
314 314 312 310 307 307 312 313 308 306 307 311 314 315 320 321 317 318 318 316 320 320 311 307 310 314 317 317 315 315 311 307 307 306 304 304 302 300 299 298 297 297 296 295 294 294 293 292 291 290 290 289 288 288 288 289 290 291 291 292 293 293 292 292 291 291 291 290 290 290 289 288 288 287 287 286 286 286 285 285 285 285 284 284 284 284
318 317 313 312 310 308 312 316 314 312 310 312 315 318 323 323 321 323 320 317 319 316 308 306 310 315 316 315 314 313 308 302 301 300 301 302 302 301 299 298 298 297 296 295 294 294 294 293 292 291 290 289 288 288 288 288 289 290 290 290 291 291 290 290 290 290 290 289 289 288 288 287 287 287 286 286 286 286 286 285 285 285 284 284 284 284
323 323 315 314 314 310 312 315 316 315 311 312 315 317 321 322 322 324 321 320 319 315 309 307 312 317 317 313 309 306 301 298 298 298 298 299 300 301 299 298 298 297 296 295 295 295 294 293 291 291 290 289 288 287 287 287 288 288 288 289 290 289 289 289 289 288 288 288 287 287 287 287 287 287 286 286 286 286 286 285 285 285 284 284 284 284
322 323 315 312 311 310 312 314 313 314 314 312 312 314 318 319 318 317 315 315 314 314 312 311 313 315 314 311 304 300 300 298 298 298 298 298 299 299 299 298 298 297 296 295 295 295 294 293 291 291 290 289 288 287 287 287 287 288 288 288 288 288 288 288 288 288 287 287 287 287 287 287 287 286 286 286 286 286 285 285 285 284 284 284 284 284
320 320 312 309 309 308 310 312 310 313 316 312 311 315 315 314 315 315 313 309 310 318 318 314 314 314 312 312 306 302 303 301 299 299 299 299 299 299 299 299 298 298 297 296 295 295 294 293 291 290 290 289 287 287 286 286 287 287 287 288 287 287 287 287 287 287 287 287 287 286 286 286 286 286 286 286 285 285 285 285 284 284 284 284 284 284
320 319 312 309 311 307 304 308 309 310 313 312 314 316 312 312 314 315 318 315 314 320 319 314 317 316 315 316 310 305 307 305 302 301 300 299 299 299 299 299 299 298 297 296 296 296 295 293 292 291 290 288 287 287 286 286 286 287 287 287 287 287 287 287 287 287 287 286 286 286 286 286 286 286 286 285 285 285 285 284 284 284 284 284 284 284
317 319 314 308 310 307 303 309 312 309 309 310 313 314 314 316 317 315 318 320 319 322 320 315 315 316 317 317 312 310 311 310 306 302 301 301 300 299 300 300 299 298 298 297 296 295 295 293 292 291 290 288 287 287 286 286 286 286 286 287 287 287 287 287 286 286 286 286 286 286 286 286 286 286 285 285 285 284 284 284 284 284 284 284 284 284
314 319 318 308 307 308 307 310 314 313 309 308 310 312 312 315 317 316 316 318 320 321 320 318 316 316 317 315 313 313 312 311 310 305 304 303 301 300 300 300 299 299 298 297 296 296 295 294 293 291 289 288 287 286 286 286 286 286 286 286 286 286 286 286 286 286 286 286 286 286 286 286 285 285 285 285 284 284 284 284 284 284 284 285 285 285
313 316 319 311 306 309 311 312 315 315 311 310 312 313 312 312 313 315 315 314 316 319 320 320 320 318 314 312 313 313 313 312 312 311 308 304 302 301 300 300 300 299 299 298 297 296 295 294 293 291 289 288 287 286 286 286 286 286 286 286 286 286 286 286 286 286 286 286 286 286 286 285 285 285 285 284 284 285 285 285 285 285 286 286 286 287
314 315 317 313 309 312 313 311 311 313 312 312 313 314 314 314 314 316 318 314 313 316 318 318 320 319 311 307 310 311 311 310 310 311 310 305 302 301 300 300 300 299 299 298 297 296 295 294 293 291 289 288 287 286 286 286 286 286 286 286 286 286 286 286 286 286 286 286 286 286 285 285 285 285 284 285 285 285 285 286 286 287 287 287 287 287
317 316 317 315 313 313 311 307 305 307 310 311 312 313 314 315 315 319 321 317 313 314 314 314 318 318 309 303 304 305 304 304 304 305 306 304 302 300 299 299 299 299 299 297 296 295 294 294 293 291 289 288 287 287 286 286 286 286 286 286 286 286 286 286 286 286 286 286 286 285 285 285 285 285 285 285 285 286 286 287 287 287 287 287 287 286
316 316 316 315 314 313 310 307 305 306 308 310 311 311 313 315 316 317 317 315 315 316 315 315 318 317 309 302 301 301 299 299 299 300 302 302 300 299 299 298 298 297 297 296 295 295 294 294 293 291 290 289 288 288 287 286 286 286 286 285 285 286 285 286 286 285 285 285 285 285 285 285 285 285 285 286 286 287 287 287 287 287 286 286 286 285
316 317 317 317 317 316 314 312 311 309 309 311 312 311 312 314 314 314 313 312 315 318 317 318 320 317 310 305 302 301 300 300 300 298 298 300 300 299 298 297 297 296 296 295 295 295 294 294 293 292 290 289 289 288 287 287 287 286 286 285 285 285 285 285 285 285 285 285 285 285 285 285 285 285 286 286 287 287 287 287 287 286 286 285 285 284
318 318 317 318 320 320 320 319 317 315 311 311 314 312 312 313 313 313 314 314 316 318 317 318 319 315 310 306 306 303 301 302 302 298 297 298 298 298 298 297 297 296 296 295 295 295 294 294 294 293 291 290 289 288 288 287 287 287 286 286 286 285 285 286 285 285 285 285 285 285 285 285 286 286 286 286 287 287 287 286 286 286 285 285 284 284
317 318 317 319 321 321 321 320 319 317 314 313 314 313 312 313 313 314 315 316 316 315 316 317 317 316 311 308 309 307 304 305 305 301 299 299 297 297 297 296 296 296 295 295 295 294 294 294 294 293 292 290 289 289 288 288 287 287 286 286 286 286 286 286 285 285 285 285 285 285 285 286 286 286 286 287 287 287 286 286 285 285 285 284 284 283
318 318 317 318 320 320 319 317 316 317 316 314 314 313 312 312 314 315 315 316 316 316 317 317 316 317 315 310 311 311 306 305 305 303 301 299 297 297 296 296 296 295 295 295 294 294 294 294 294 293 292 291 290 289 288 288 287 287 287 286 286 286 286 286 285 285 285 285 285 285 286 286 286 286 286 287 287 286 286 285 285 285 285 284 284 283
317 317 318 319 318 318 316 313 313 315 316 315 314 314 312 311 312 314 314 315 316 316 318 316 315 317 316 311 310 310 307 306 306 303 301 299 298 297 296 296 295 295 295 294 294 294 294 294 294 293 293 292 290 289 289 288 288 287 287 287 286 286 286 286 286 285 285 285 285 286 286 286 286 286 286 287 286 286 285 285 284 284 285 284 284 282
317 318 319 319 317 317 317 314 314 314 314 315 314 314 314 312 311 312 313 314 314 316 316 315 313 314 314 312 311 310 308 306 304 301 300 299 298 297 296 296 296 295 295 294 294 294 294 294 294 293 293 292 291 290 289 288 288 287 287 287 287 287 286 286 286 285 285 285 286 286 286 286 286 286 286 286 286 285 285 284 284 284 284 284 283 282
316 318 319 319 318 318 317 316 315 315 315 316 316 315 314 312 311 311 312 313 313 314 313 312 313 313 312 312 312 308 304 303 302 301 300 299 298 297 296 297 297 296 295 295 295 294 294 294 294 293 292 292 292 291 290 289 288 287 287 287 287 287 286 286 286 285 285 285 286 286 286 286 286 286 286 286 285 285 284 284 284 284 284 284 283 282
315 316 316 317 319 320 317 316 316 315 315 316 317 316 314 312 311 310 310 311 312 313 313 312 314 314 311 310 309 304 301 302 303 301 300 299 298 298 298 298 297 297 296 295 295 294 294 294 294 293 292 292 292 291 291 290 289 288 288 287 287 287 286 286 286 285 285 285 286 286 286 286 286 286 286 285 285 284 284 284 284 284 284 284 283 281
314 315 315 316 321 320 315 314 315 314 316 318 318 318 314 311 311 310 310 311 311 311 314 314 314 314 311 309 307 303 302 304 304 301 301 301 299 298 298 299 299 297 296 296 295 294 294 294 293 293 292 292 292 292 292 292 291 290 289 288 287 286 286 286 286 286 285 286 286 285 286 286 286 286 285 285 285 284 284 283 283 283 283 283 282 281
313 315 315 316 320 317 310 311 314 316 320 318 314 315 315 312 313 313 311 311 310 310 313 313 313 314 312 309 308 306 304 304 303 302 301 301 300 299 298 298 298 297 296 296 295 294 295 295 294 293 292 292 292 292 292 291 291 290 290 289 288 287 286 286 286 286 286 286 286 286 286 286 286 285 285 285 284 284 283 283 283 283 283 283 282 281
312 314 315 316 317 312 308 311 317 320 319 310 303 304 308 310 313 313 312 311 310 309 312 312 311 311 310 308 307 306 304 301 299 298 299 299 299 299 299 299 297 296 296 296 295 295 295 294 293 292 292 292 291 291 290 290 290 290 290 289 288 287 286 286 286 286 286 286 286 286 286 286 285 285 285 285 284 284 283 283 283 283 283 282 282 281
312 313 314 314 312 309 309 315 319 319 313 304 297 298 302 307 310 312 312 312 311 309 310 311 310 308 306 304 301 300 299 296 295 296 296 296 296 297 298 300 299 298 298 297 295 295 294 293 293 293 293 292 292 291 291 290 290 290 289 289 288 288 287 286 286 286 286 286 286 286 286 286 285 285 285 284 284 283 283 283 282 282 282 282 281 280
312 314 314 314 312 310 311 314 315 315 313 308 302 300 303 308 309 311 313 312 310 309 309 309 310 308 304 301 297 295 294 295 295 296 296 295 295 296 297 298 298 298 297 296 294 294 294 294 294 294 294 293 293 292 292 291 290 289 289 288 288 288 288 287 286 286 286 286 287 287 286 286 285 285 285 284 283 283 283 282 282 281 282 281 281 280
309 312 313 315 314 311 311 312 313 315 316 313 308 302 302 304 306 309 312 310 306 306 308 309 309 308 303 299 296 294 294 297 299 299 297 295 294 294 294 294 294 294 294 293 293 293 294 294 294 293 293 293 292 292 292 291 290 289 288 288 288 287 287 287 287 288 288 288 288 287 287 286 285 285 284 284 283 283 282 281 281 281 281 281 280 279
306 308 309 313 314 311 312 314 315 315 315 312 306 299 296 300 304 306 310 310 306 304 305 307 307 307 304 300 296 296 297 299 300 299 296 294 293 292 293 293 292 291 291 292 293 293 293 293 293 292 292 292 292 292 292 291 290 289 289 288 288 287 287 287 288 289 289 289 288 288 287 286 286 285 284 284 284 283 282 281 281 281 281 280 279 279
306 307 308 312 313 312 312 314 313 313 311 306 301 295 294 297 302 307 310 308 303 300 300 305 306 304 302 298 296 297 300 300 300 299 296 293 291 290 291 292 292 290 291 292 292 292 293 293 292 292 292 292 292 292 291 291 290 289 289 289 288 287 287 289 289 289 289 288 288 287 287 286 286 285 285 284 283 282 281 281 281 280 280 279 279 278
305 306 307 310 312 312 312 314 312 312 309 303 297 294 294 297 302 308 309 303 300 297 296 301 304 301 298 297 296 297 299 298 297 296 294 292 291 290 289 289 290 291 291 292 292 292 292 292 292 292 292 292 292 292 291 291 290 289 289 288 288 288 289 289 289 288 288 288 287 287 287 286 285 285 284 283 282 281 280 280 280 280 279 278 278 278
306 306 306 308 310 310 311 312 312 312 307 300 295 293 294 300 305 306 302 298 300 300 296 297 299 297 297 299 297 296 297 294 292 293 293 292 293 292 289 287 287 289 289 289 290 291 292 291 291 291 292 291 291 291 291 290 290 290 289 288 288 289 289 289 288 288 288 287 287 287 286 286 285 284 283 282 281 280 280 280 279 279 278 278 278 277
307 308 307 307 308 309 309 309 312 313 304 296 295 295 295 301 305 302 297 294 295 297 296 296 296 294 295 297 295 293 293 292 291 292 292 291 292 291 289 287 287 287 288 288 289 290 290 290 290 290 291 290 290 290 290 289 289 289 288 288 289 289 289 288 288 288 287 287 287 286 286 285 284 283 282 281 280 280 279 279 278 278 278 277 276 276
308 309 308 308 308 309 311 310 310 307 300 296 299 300 299 301 300 298 298 296 293 292 294 295 295 292 292 295 294 291 291 291 291 290 290 290 290 289 289 287 286 287 287 288 289 289 289 289 289 290 290 290 289 290 289 289 289 288 288 289 289 289 289 288 288 288 287 287 286 286 285 284 283 282 281 280 280 279 278 278 277 277 277 276 275 275
306 305 306 308 307 306 307 305 302 298 295 295 298 299 300 299 296 296 299 299 295 293 292 293 294 291 289 291 292 290 290 291 291 290 289 289 289 289 289 287 286 288 289 288 289 289 288 288 289 289 289 289 289 289 289 289 289 288 288 289 289 289 289 288 287 287 286 286 286 285 284 283 282 281 280 280 279 278 278 277 277 276 276 275 275 274
298 296 299 303 303 301 299 297 295 295 295 295 295 295 297 297 294 296 300 299 296 294 292 291 293 292 289 289 291 291 291 291 290 290 289 289 289 289 288 287 286 287 288 288 288 288 288 288 287 286 287 288 288 288 288 288 288 288 289 289 289 288 288 287 286 286 285 285 285 284 283 282 281 280 279 279 278 278 277 277 276 275 275 274 274 273
294 293 296 299 301 301 299 296 294 294 294 295 294 293 294 295 293 294 297 297 294 292 291 291 292 291 289 290 291 293 293 290 289 289 288 288 289 288 287 286 286 286 287 288 289 289 288 286 285 285 286 286 287 288 288 288 288 288 288 288 288 287 287 286 285 285 285 284 284 283 282 281 280 280 279 278 277 277 276 276 275 274 274 274 273 272
296 294 296 297 297 296 295 292 290 290 291 292 294 293 293 295 294 291 291 293 292 291 290 290 290 290 290 290 291 292 293 290 289 290 289 287 288 288 286 286 286 287 288 289 289 288 286 285 285 285 285 286 287 287 287 288 288 288 288 287 286 286 285 284 284 284 284 284 283 282 282 281 280 279 278 278 277 276 276 275 275 274 274 274 273 272
296 295 296 296 294 292 291 290 289 290 291 291 292 293 293 293 294 291 289 290 291 291 290 289 288 288 290 290 289 290 292 290 290 291 290 288 287 287 286 285 286 288 289 289 288 287 286 285 285 286 286 286 287 287 286 287 288 288 287 286 285 284 283 283 283 283 283 282 282 281 280 279 278 278 277 276 276 275 275 275 274 274 273 273 272 271
294 295 294 294 295 294 293 292 291 293 295 294 293 293 292 291 292 292 291 291 292 292 292 292 289 286 286 287 287 289 292 292 289 289 290 289 287 287 286 285 286 288 289 289 288 286 285 286 286 285 286 287 287 286 286 286 287 287 286 285 284 283 282 282 282 281 280 280 280 280 279 278 277 276 275 275 274 274 274 273 273 272 272 272 271 271
295 296 294 294 296 296 295 293 292 294 296 294 293 294 292 290 291 292 293 293 292 291 291 292 292 289 288 287 285 287 291 292 289 288 289 288 287 286 286 285 285 287 288 288 287 285 284 285 285 284 285 287 287 285 285 286 286 286 286 284 283 282 281 281 280 279 279 279 279 278 278 277 276 275 274 273 273 273 272 272 271 271 271 271 270 270
Wind_Speed
1 3 6 7 6 8 12 12 7 2 4 1 1 3 6 7 5 1 3 1 1 4 8 9 11 13 12 9 8 7 5 7 8 7 7 6 6 5 5 4 3 2 2 2 2 3 4 4 5 6 8 9 10 13 15 15 17 18 19 20 21 23 23 23 23 23 23 23 22 21 21 22 23 22 21 21 21 21 21 20 19 19 19 18 17 17
2 6 10 9 3 4 10 9 3 1 2 2 3 5 6 7 7 1 3 1 1 4 6 4 9 14 14 12 6 8 8 9 10 9 8 7 6 4 5 5 3 2 2 2 2 3 3 3 5 6 8 9 10 13 15 16 17 18 19 20 20 20 21 21 21 20 21 22 22 22 23 23 23 23 23 23 23 23 22 21 21 21 21 20 19 19
4 9 11 4 5 4 3 5 5 5 5 3 3 5 6 4 5 3 3 2 2 4 4 1 7 13 13 12 7 8 8 6 3 4 4 5 6 5 5 5 5 4 4 4 3 3 2 3 5 5 7 10 11 13 14 16 18 18 19 19 19 19 19 19 20 20 21 23 23 24 25 24 25 25 24 25 25 23 23 22 22 22 21 21 21 20
5 7 6 5 7 6 4 4 7 5 5 6 5 5 6 2 2 5 2 3 3 3 3 3 6 12 12 11 7 5 3 1 2 1 2 3 4 4 4 4 5 6 5 5 4 4 4 3 4 4 6 9 11 13 14 16 18 19 20 20 20 20 20 20 21 21 23 24 24 25 26 27 27 27 26 26 25 24 23 23 23 22 22 22 22 21
6 0 1 6 8 8 5 5 8 6 6 8 8 8 8 5 6 8 1 2 2 3 2 4 8 10 8 9 6 3 2 1 2 4 4 4 4 3 3 4 4 4 5 5 5 4 4 4 3 4 5 8 10 12 14 17 19 20 21 21 22 22 22 23 23 24 25 26 28 28 27 26 26 25 25 24 24 25 26 26 25 25 24 25 25 25
6 3 5 7 7 8 7 6 9 9 6 6 9 12 12 10 8 7 1 1 5 4 2 2 7 5 1 5 5 3 2 4 5 6 7 6 5 5 5 6 5 4 4 4 5 5 4 4 4 4 5 6 8 11 14 16 18 20 21 23 23 24 24 25 25 25 26 27 26 24 22 21 22 22 21 22 24 27 28 28 27 27 26 27 27 27
3 3 5 6 7 9 8 7 8 9 6 5 4 8 12 11 7 6 4 3 5 3 1 1 6 5 3 5 2 4 4 6 7 8 9 8 7 7 7 6 6 6 5 5 5 5 5 5 5 5 4 5 7 11 14 16 18 20 21 23 24 24 24 24 24 24 24 25 24 24 24 25 26 24 22 24 26 28 28 27 27 27 26 26 26 26
4 5 4 5 7 7 8 7 7 10 7 3 1 3 8 9 8 8 7 6 4 2 0 3 3 4 7 6 2 3 5 7 10 11 10 10 9 9 8 7 7 7 7 6 6 6 6 5 5 5 4 5 8 11 13 15 17 19 21 22 22 22 23 22 21 20 21 24 25 27 29 30 30 29 27 27 28 27 27 27 26 26 25 25 25 25
4 7 8 9 8 7 7 2 8 13 7 1 2 2 3 4 5 6 6 6 2 2 4 5 4 4 8 5 1 2 5 9 10 12 13 12 11 10 9 8 7 7 6 6 6 6 6 6 5 5 5 6 10 12 13 16 17 19 20 20 20 20 20 20 19 20 22 24 26 28 30 31 31 30 29 27 27 26 25 25 25 25 25 24 23 23
2 3 4 7 7 6 3 3 4 11 5 3 5 6 6 4 3 3 3 3 2 3 8 7 9 6 6 5 4 2 4 8 5 6 9 12 11 10 9 8 8 7 6 5 6 6 6 5 5 5 6 7 10 12 14 17 18 20 20 20 20 20 21 21 21 23 24 24 25 27 28 30 31 30 28 27 26 25 24 24 24 24 23 23 22 22
2 0 1 3 3 2 5 5 3 1 3 7 7 6 6 4 3 2 1 1 2 6 6 7 13 10 5 4 6 5 2 2 0 2 5 10 10 10 9 8 8 7 6 5 6 6 6 5 5 6 6 7 10 13 15 17 20 21 22 22 23 23 23 24 24 24 24 24 25 26 27 28 29 28 27 26 25 24 23 23 23 23 22 21 21 21
1 2 2 1 1 3 6 5 4 3 2 4 4 5 4 2 2 2 2 2 6 6 2 1 7 9 8 4 4 4 1 1 1 1 5 10 10 9 8 8 8 7 6 6 6 6 6 6 6 6 7 8 10 12 15 18 21 22 23 24 25 26 26 26 26 25 25 25 25 25 26 26 26 26 25 25 24 23 23 22 22 21 20 20 19 19
2 5 2 2 0 3 6 6 4 2 2 3 4 7 6 3 3 4 3 4 6 4 2 2 3 5 8 7 7 6 1 2 1 2 2 7 10 10 9 9 8 7 7 7 6 6 7 8 8 8 8 9 9 12 16 19 21 23 24 25 26 27 26 26 26 25 25 25 25 25 25 25 25 24 24 23 23 22 21 21 20 19 19 18 18 17
3 2 3 4 2 5 10 8 5 5 6 7 8 8 8 5 4 5 4 3 5 1 3 1 3 3 4 6 10 7 2 3 2 3 2 2 7 10 10 9 8 7 7 7 6 7 8 9 9 9 9 9 10 13 17 19 21 24 24 25 27 27 26 26 26 25 25 25 25 24 24 24 23 23 22 21 21 20 19 18 18 17 17 16 16 16
6 3 6 10 4 8 14 9 4 7 8 8 5 4 5 5 4 5 4 3 3 1 2 1 3 5 3 2 3 2 2 2 1 3 2 1 4 7 8 8 8 8 8 6 7 7 9 10 10 9 10 10 11 15 18 20 22 24 25 25 27 27 26 26 26 25 25 25 24 24 23 23 22 21 21 20 19 18 17 16 15 15 15 15 15 14
6 5 3 4 1 10 13 5 4 7 7 4 1 1 4 4 2 1 1 0 2 1 2 4 3 3 2 1 1 0 2 3 2 3 3 3 4 7 8 8 9 9 8 8 7 8 10 11 11 11 11 11 13 16 19 21 23 24 25 26 27 27 27 26 26 25 25 25 24 23 22 21 20 20 19 19 18 16 15 14 14 14 13 13 13 12
4 2 2 2 0 5 5 2 3 2 4 4 3 5 3 1 1 1 1 2 1 5 3 4 4 3 1 2 3 4 4 5 4 3 4 5 6 8 8 9 10 9 9 9 8 9 11 12 12 12 13 13 15 18 20 22 23 25 26 27 27 27 27 26 25 25 24 24 23 22 21 20 19 18 18 18 17 16 14 14 13 12 12 12 11 11
3 1 2 3 2 1 3 1 2 2 1 5 5 6 4 2 1 1 3 1 2 7 3 4 8 6 5 3 3 5 6 7 7 6 5 5 7 9 10 10 11 10 9 9 9 10 11 13 14 14 15 16 17 19 20 22 23 25 26 27 27 27 27 26 25 24 24 23 23 22 20 19 18 17 17 17 16 15 14 13 12 11 10 10 9 9
3 3 2 2 1 2 1 2 3 1 1 1 2 3 3 3 4 4 4 3 4 6 4 4 7 7 8 6 5 8 10 10 9 7 6 8 9 10 10 11 11 10 9 9 9 9 11 14 15 14 15 17 18 19 20 22 23 25 25 26 26 26 26 25 25 24 23 22 22 21 20 19 18 17 17 16 15 14 13 12 11 9 9 9 9 10
2 4 2 1 1 3 3 5 7 6 2 1 1 2 0 3 3 3 3 2 3 5 4 3 4 5 7 8 11 13 12 10 9 7 8 11 11 10 10 11 12 11 11 10 10 9 12 14 14 14 16 18 20 21 21 22 23 24 25 25 26 26 25 25 24 23 23 21 21 21 20 19 18 17 16 15 14 13 11 10 9 8 8 8 9 9
2 4 4 2 1 3 5 7 9 10 8 6 6 7 5 2 0 2 2 1 2 4 4 4 5 3 3 4 10 13 10 8 9 8 9 9 9 9 8 9 11 11 11 10 9 9 11 13 12 14 17 20 22 21 21 22 22 23 25 25 26 26 25 25 24 23 23 22 21 21 20 19 18 17 16 15 13 11 10 9 8 8 7 7 7 6
4 3 3 4 4 6 5 2 2 3 5 7 8 10 11 8 5 4 5 3 1 3 3 3 5 2 3 0 2 4 3 3 5 5 5 5 7 7 7 8 9 10 10 10 8 8 11 12 12 14 17 20 21 21 20 22 23 24 26 26 26 26 26 26 25 24 24 23 22 21 21 20 19 17 16 14 12 10 9 9 8 7 6 5 4 4
3 1 2 2 3 4 0 2 1 3 2 2 4 6 8 8 8 8 6 3 3 3 0 1 4 1 1 1 1 2 1 1 0 2 3 3 5 6 8 9 8 8 8 8 7 9 11 12 12 14 17 19 20 21 22 23 25 26 27 28 27 27 27 26 25 24 24 24 23 22 21 20 19 17 15 14 13 11 10 10 8 7 6 5 3 2
3 2 5 2 0 1 1 1 1 1 1 4 6 5 6 8 7 4 2 2 5 5 3 2 5 2 1 1 1 2 2 1 2 4 5 4 4 6 8 9 9 8 8 8 8 10 12 12 13 15 17 18 20 21 22 24 25 26 27 28 28 27 26 26 25 25 24 24 24 23 22 21 19 18 16 15 14 13 12 11 9 8 6 5 3 1
5 4 5 3 3 3 2 3 4 4 5 7 7 6 8 8 5 2 1 1 5 7 9 7 6 4 3 1 1 2 2 3 5 4 5 5 4 6 7 8 10 10 10 10 10 11 13 14 15 17 17 18 19 20 22 24 26 27 28 30 29 28 27 26 25 25 25 25 24 24 23 22 21 19 18 17 16 14 13 11 10 8 6 5 2 1
6 6 8 7 8 9 8 6 6 6 5 4 4 7 11 13 11 6 3 5 7 6 10 10 7 3 2 1 2 3 3 5 6 4 5 5 5 5 6 8 9 10 11 13 12 12 12 14 16 17 17 18 19 21 23 25 26 26 28 30 30 28 27 26 26 25 25 25 24 24 23 22 21 20 19 18 17 15 14 12 10 8 6 4 3 2
3 4 11 14 13 12 8 4 3 7 7 8 8 11 13 15 15 9 5 7 6 4 7 12 7 3 4 5 6 6 6 7 6 5 5 5 5 6 6 7 8 9 10 11 11 10 11 12 16 18 18 18 19 22 25 26 27 27 29 31 31 29 28 27 27 26 26 26 25 24 23 22 21 20 19 18 18 16 15 13 11 9 6 5 4 4
2 5 14 18 18 12 3 1 4 9 13 14 12 13 14 13 15 15 12 8 7 5 9 8 8 9 10 11 10 9 9 8 6 7 7 6 6 7 6 7 8 9 9 10 11 12 13 13 14 16 18 18 19 22 24 26 29 30 31 32 32 31 30 30 29 29 28 27 27 25 24 22 21 20 19 19 18 17 16 14 12 10 7 6 6 6
3 8 12 14 18 12 1 0 5 7 8 10 13 15 15 15 16 18 17 11 9 10 12 7 12 15 10 10 11 11 10 10 7 7 6 5 6 7 8 8 9 10 11 12 13 14 13 12 12 14 17 17 19 21 22 24 29 32 33 33 33 33 33 33 32 31 31 30 29 27 25 23 22 21 20 20 19 18 17 15 13 11 9 8 8 7
3 6 5 6 13 13 5 3 4 5 3 5 9 13 14 16 18 18 18 14 12 16 13 4 8 13 5 8 10 7 5 5 5 4 4 6 7 8 9 9 9 10 11 12 13 12 11 11 12 14 16 17 20 22 22 23 28 33 34 35 36 36 36 35 35 34 33 32 31 28 26 25 23 22 21 21 20 20 18 16 14 12 11 10 10 9
4 5 3 4 7 9 6 4 3 4 4 4 7 11 12 11 11 13 15 13 11 14 10 2 6 10 4 7 6 4 5 5 5 6 6 6 7 9 9 9 9 9 10 11 11 10 10 10 11 13 15 18 20 21 22 24 30 35 37 38 39 39 38 38 37 36 34 33 31 30 28 26 24 23 23 23 23 22 20 18 16 14 13 13 12 11
5 4 3 4 8 8 6 8 6 2 0 5 12 16 13 9 9 10 11 11 13 13 10 7 11 10 5 6 4 5 6 7 7 8 7 6 8 9 9 9 8 9 9 9 9 10 10 10 11 14 17 19 21 23 26 30 34 37 39 39 39 39 38 37 36 35 34 33 32 31 29 28 27 25 25 25 25 23 21 20 18 16 15 14 14 13
6 5 4 7 9 6 4 8 8 4 1 8 15 17 16 12 10 9 9 12 15 13 10 11 12 7 5 7 6 6 7 7 8 8 6 6 8 8 8 7 7 8 8 8 8 9 10 11 14 17 19 22 26 30 33 35 36 37 37 36 35 35 36 36 36 36 35 34 33 32 31 31 29 28 28 27 27 25 23 22 20 18 17 16 15 15
6 7 5 6 5 3 3 7 7 5 7 8 6 9 17 19 18 15 14 17 17 14 8 5 3 4 7 9 9 9 8 6 5 5 4 4 6 7 7 7 7 6 6 6 7 8 9 11 13 15 19 24 29 32 33 33 33 33 33 33 33 33 34 36 37 37 36 35 34 33 33 32 31 30 30 29 29 28 26 24 22 20 19 18 17 16
8 8 6 4 3 1 4 7 7 8 9 3 4 1 7 13 17 19 19 17 16 14 10 5 3 6 8 7 6 6 6 4 2 3 3 3 5 6 6 7 6 6 6 6 7 8 9 10 11 13 18 23 26 26 26 27 28 28 28 28 30 31 33 36 37 38 37 36 35 34 34 33 32 31 31 31 30 29 28 26 24 22 21 19 17 17
9 8 4 3 3 2 4 8 7 4 2 2 4 3 2 3 7 11 12 13 13 13 12 11 10 6 6 5 3 3 3 3 1 3 4 4 4 6 6 6 6 6 7 7 7 9 11 13 15 17 19 20 21 21 22 23 24 25 25 26 27 29 31 33 35 36 36 36 35 35 34 34 33 32 32 32 31 31 30 28 26 23 21 19 18 17
8 8 4 4 5 3 4 7 2 4 2 3 2 3 4 3 7 9 8 9 10 11 12 12 12 7 6 5 5 5 4 3 1 5 5 6 6 7 6 4 4 5 5 5 7 8 11 15 16 17 17 17 17 19 20 20 21 23 24 24 25 27 28 30 32 33 34 35 35 35 35 34 33 33 33 33 32 32 31 29 26 23 21 20 19 18
3 5 5 6 4 3 2 4 2 4 6 3 4 5 3 0 4 6 4 3 3 7 11 12 12 10 7 6 5 6 5 2 4 5 5 8 8 7 5 3 3 4 5 6 8 9 10 13 15 15 15 15 17 18 18 18 19 20 22 23 23 24 26 27 29 31 33 34 35 35 35 34 33 33 32 32 32 32 31 28 25 23 22 20 19 19
2 0 1 3 3 3 4 5 5 6 4 1 2 2 0 0 5 7 0 3 3 6 10 12 11 9 8 7 6 6 5 4 6 4 4 7 8 7 7 6 4 5 6 8 10 11 13 14 15 15 15 16 17 17 17 18 19 19 21 23 23 24 25 27 28 28 29 30 31 32 33 33 32 31 31 32 32 31 29 27 25 23 22 21 20 20
3 1 2 4 4 4 6 5 3 3 1 1 2 2 1 2 3 6 1 3 3 4 6 9 9 6 7 8 6 6 6 6 5 2 4 7 7 6 7 6 6 8 10 11 12 12 13 14 16 16 17 18 18 18 19 19 20 21 22 23 24 25 25 25 24 23 24 26 27 28 29 29 29 30 30 31 30 29 28 26 25 24 22 21 20 20
2 1 2 3 4 5 7 4 2 2 1 2 3 3 3 1 2 5 4 1 3 4 4 5 7 6 7 8 6 5 5 2 1 2 5 6 6 5 6 6 8 12 13 12 13 13 13 15 16 17 18 19 18 19 20 21 22 23 23 23 25 25 22 20 19 20 22 23 24 25 26 26 27 27 28 28 28 28 27 26 25 24 22 21 21 21
3 2 1 2 3 3 4 3 2 3 2 4 3 0 1 2 3 4 2 2 4 7 5 4 5 6 7 8 7 4 2 3 3 3 4 6 6 5 6 6 7 9 10 10 11 13 14 16 18 19 19 20 20 21 22 23 24 25 24 25 25 22 19 19 20 21 22 22 23 24 24 25 25 26 27 27 27 28 27 26 25 23 22 21 21 21
4 4 2 3 3 1 1 3 4 3 2 9 9 3 2 3 2 3 3 2 2 5 5 4 4 6 8 7 6 4 4 3 3 3 4 4 4 4 6 8 8 9 10 11 12 15 18 19 20 22 22 22 22 23 24 25 26 26 26 27 24 21 21 22 22 22 23 23 23 24 24 24 25 26 26 27 28 27 27 25 24 23 22 21 21 22
3 3 3 3 3 3 3 5 3 0 5 11 9 4 5 4 2 4 6 3 0 3 5 4 4 7 8 7 7 6 5 3 4 4 4 4 3 3 5 7 9 11 13 15 15 17 19 21 22 24 24 24 24 25 26 28 27 27 27 27 25 24 24 25 24 24 24 24 24 24 24 24 25 26 27 27 27 27 26 25 23 22 22 21 21 21
2 2 1 1 2 2 2 2 0 1 5 8 3 1 4 5 2 3 7 4 2 3 4 4 5 7 7 6 6 7 6 5 5 5 5 5 5 5 5 7 12 14 14 15 16 16 18 22 23 24 24 25 26 27 28 30 29 29 29 29 28 27 27 27 26 25 25 25 25 25 25 25 26 26 27 27 27 27 26 25 23 22 22 21 21 21
1 1 1 0 1 1 1 1 1 1 3 6 2 3 3 4 2 2 5 4 3 4 5 5 5 7 7 6 5 5 5 6 6 5 5 5 5 5 5 7 12 15 15 14 14 15 18 20 21 21 22 25 28 29 30 31 31 32 32 31 30 30 29 28 28 27 27 27 27 26 26 27 27 28 28 28 27 27 26 24 23 22 22 21 21 21
1 1 1 0 2 2 1 2 2 1 2 5 3 2 2 2 1 2 3 3 3 4 5 4 2 5 7 6 5 5 5 6 6 6 6 5 5 5 5 7 11 16 17 16 15 16 17 18 20 22 23 26 29 31 31 32 33 34 34 32 31 31 30 30 29 29 29 29 28 28 28 29 29 29 29 29 28 27 26 25 24 23 22 22 21 21
2 4 3 1 2 1 1 0 1 2 3 2 1 1 1 2 2 2 1 0 1 3 4 2 3 4 6 6 6 6 4 5 7 6 5 5 6 5 5 9 13 16 16 16 16 17 17 19 22 24 26 28 31 32 32 33 35 35 35 34 32 31 31 31 30 30 31 30 30 30 30 30 30 30 30 30 29 28 27 25 24 24 23 21 20 20
3 4 3 2 2 2 1 1 2 1 1 2 3 3 3 3 3 3 2 1 1 3 3 2 1 3 5 6 6 5 5 6 6 6 6 6 5 5 8 14 17 17 16 17 17 18 19 21 23 25 27 31 32 31 31 34 35 35 35 35 34 32 31 32 32 32 32 32 32 32 31 31 31 31 31 30 28 27 26 24 23 22 22 21 19 19
3 4 3 3 3 2 2 5 6 2 1 3 5 6 5 5 4 4 4 3 3 4 5 4 3 2 2 3 5 6 6 6 6 6 5 5 6 8 13 18 19 17 17 18 17 18 20 22 24 25 27 30 30 29 31 33 34 33 33 34 34 33 32 33 33 33 33 33 33 33 33 32 32 31 30 28 26 25 24 23 22 22 22 20 19 19
4 5 5 4 3 2 3 6 6 3 1 2 5 6 5 5 5 5 6 6 5 5 5 5 5 4 4 6 7 8 6 5 6 7 5 6 10 13 16 18 18 16 18 19 18 19 21 22 23 24 27 29 29 28 30 31 31 31 31 31 33 33 33 33 33 34 34 34 34 34 34 33 32 30 28 26 25 24 23 22 22 22 21 20 19 18
Wind_Direction
226 196 202 225 215 195 198 206 220 46 64 90 267 268 265 267 267 170 118 51 26 263 255 248 261 266 262 242 191 173 192 211 212 195 190 192 186 196 192 180 182 166 107 66 50 43 41 54 82 97 95 97 107 115 118 120 122 122 123 125 126 126 126 125 123 120 117 113 110 107 101 96 92 90 89 88 87 87 87 88 87 86 86 86 85 86
212 218 227 229 191 176 207 209 199 138 153 221 250 259 264 259 265 244 122 112 119 251 255 242 261 261 261 259 195 161 200 215 213 206 197 194 191 193 187 181 178 156 128 137 119 80 63 77 100 107 106 108 110 118 122 120 121 123 124 126 125 125 125 124 124 122 120 118 115 111 106 103 98 95 94 91 89 89 89 88 87 86 85 84 83 83
205 230 235 200 100 118 188 198 201 219 224 228 235 254 263 258 278 273 146 142 181 237 256 235 265 264 261 255 205 176 211 214 207 218 205 197 198 195 186 180 176 171 160 158 141 121 109 89 101 102 103 113 114 118 122 121 124 126 125 127 126 125 125 125 124 122 120 119 117 114 110 106 101 97 95 94 92 91 90 88 87 86 85 84 83 83
204 240 239 136 132 156 149 178 194 212 231 225 219 237 247 220 258 258 158 111 183 229 294 311 283 274 265 247 209 173 202 129 85 227 237 223 219 201 184 183 181 178 169 160 152 141 133 108 97 91 99 112 114 117 121 123 126 126 127 129 128 126 125 125 125 123 122 120 119 116 112 108 103 99 97 95 93 92 91 89 88 87 86 86 85 85
215 154 120 148 168 184 167 168 186 205 228 221 216 227 243 226 223 244 311 55 227 208 246 286 285 277 259 238 217 134 132 192 169 195 216 217 216 204 183 194 195 178 168 163 159 151 140 127 107 92 106 112 114 119 122 124 125 126 128 128 127 126 125 124 123 123 122 120 117 113 110 107 102 98 95 92 89 89 90 89 88 88 88 87 86 86
234 117 125 149 172 190 185 186 192 205 228 229 215 219 238 245 235 236 239 334 266 238 187 248 270 268 243 239 224 129 177 214 193 201 213 203 194 202 201 195 189 173 171 166 157 154 143 134 121 104 108 108 113 123 125 126 127 128 128 127 127 127 126 126 126 126 124 121 119 116 113 109 103 96 91 90 90 91 91 91 92 91 90 89 88 87
234 131 133 154 173 184 198 216 196 192 227 250 214 209 228 241 239 223 204 215 258 272 79 229 258 264 305 279 191 136 222 220 202 211 210 201 196 200 204 194 182 175 172 167 159 156 148 141 134 122 111 105 120 129 129 129 131 132 131 131 131 130 130 130 129 129 128 126 125 124 120 114 108 103 100 100 100 99 98 97 96 94 92 91 89 88
157 153 161 172 174 181 205 223 182 180 217 241 85 189 208 214 218 211 207 217 249 321 118 189 242 274 280 280 121 134 252 235 215 215 204 199 200 200 202 192 181 177 171 167 163 157 152 148 139 130 122 121 132 134 133 135 137 138 138 138 137 135 134 134 133 132 131 129 127 124 119 113 111 110 110 109 107 106 105 102 99 96 94 93 91 91
142 176 189 182 183 200 211 205 159 179 211 265 73 120 160 182 204 193 202 223 247 315 245 191 163 254 259 252 136 117 268 259 229 208 197 192 195 199 198 186 177 174 170 166 160 154 152 148 141 136 133 137 141 139 139 141 142 144 145 145 143 140 139 138 138 137 134 131 127 122 118 115 115 115 115 114 112 110 108 105 103 100 97 95 93 92
63 205 210 188 198 208 178 49 155 187 200 134 119 101 94 86 93 137 204 213 166 248 248 195 170 225 267 238 216 181 249 263 239 185 187 184 187 194 188 178 175 170 167 163 153 149 148 144 144 144 138 141 146 144 141 141 141 143 144 146 146 143 141 140 140 139 135 131 126 121 119 119 120 120 119 118 115 113 110 107 105 102 99 97 94 92
76 51 303 214 215 176 109 61 29 181 128 138 138 110 100 96 93 113 178 165 225 243 242 199 184 209 260 229 218 221 218 264 351 126 173 174 180 184 176 173 173 170 166 161 153 147 143 139 144 150 144 145 148 145 142 141 140 140 140 143 142 140 140 140 139 138 134 130 125 122 122 122 124 124 124 122 119 116 113 109 106 103 100 97 94 90
145 192 205 190 111 103 113 91 47 42 111 156 158 142 138 134 146 181 157 167 242 240 186 165 182 206 236 223 222 239 164 105 21 60 172 177 178 173 169 171 172 173 166 159 159 154 153 156 162 165 155 148 148 146 145 144 142 140 139 141 140 138 140 141 140 137 133 130 127 126 125 125 127 129 128 126 123 120 117 112 108 105 101 97 94 90
212 210 163 100 240 182 149 120 86 87 194 205 172 167 185 191 180 214 201 195 241 238 95 84 157 206 238 241 261 270 146 124 126 58 138 178 174 167 168 172 170 171 168 165 166 163 167 173 173 173 163 155 154 152 150 147 144 141 140 141 141 140 142 142 140 137 134 132 130 130 129 130 131 131 130 128 126 123 120 117 113 108 103 98 93 88
211 216 156 169 208 202 185 172 166 172 188 195 181 181 194 186 196 221 207 226 258 234 83 112 177 225 252 239 254 265 80 80 102 92 56 162 168 167 166 169 170 171 174 172 169 170 178 180 177 173 166 163 161 158 154 151 147 144 143 144 143 142 143 143 141 139 138 136 134 134 133 133 134 132 130 128 127 125 122 119 115 110 105 98 91 84
218 258 178 179 164 173 192 203 170 144 166 194 190 199 209 193 208 222 209 240 269 97 109 154 196 214 199 155 264 294 78 86 111 115 92 84 151 155 155 164 173 177 180 174 172 181 185 181 178 174 171 168 166 164 161 156 152 149 148 148 146 144 145 145 144 143 141 139 137 137 137 136 135 133 131 129 127 125 122 118 114 109 103 97 90 83
225 272 162 157 115 169 185 200 93 124 161 194 124 221 232 219 197 215 270 19 30 10 183 191 235 242 215 115 112 186 160 155 135 122 137 144 147 153 162 174 181 185 183 177 180 187 186 181 179 178 176 174 171 170 167 163 159 155 153 152 149 148 149 149 148 147 144 142 140 139 138 137 137 135 133 130 128 125 122 118 113 109 103 96 89 81
211 280 103 77 5 177 185 162 125 158 174 152 178 202 206 349 72 151 209 86 70 271 228 175 228 251 245 240 160 164 188 164 153 158 158 153 157 169 180 184 188 189 182 180 186 189 184 181 183 184 181 179 177 175 172 168 165 161 158 156 154 152 152 153 152 150 147 144 142 141 140 139 138 138 135 132 130 127 123 120 115 109 101 92 84 75
200 250 143 140 176 144 353 32 104 352 93 139 191 191 125 24 327 219 242 177 189 252 252 184 217 210 190 213 151 164 194 187 179 169 159 165 174 186 194 191 190 186 179 183 188 188 183 183 189 189 185 184 182 178 176 173 169 166 163 161 159 157 157 157 156 153 150 148 145 143 142 142 141 139 137 134 132 130 127 122 114 106 96 85 75 64
206 234 169 122 171 104 37 212 159 42 324 117 215 171 123 223 210 178 224 232 204 238 256 199 211 215 204 194 167 183 198 193 181 162 169 190 191 195 197 191 186 181 181 188 190 188 186 189 193 189 185 186 185 181 179 177 174 170 167 166 164 163 162 161 159 156 153 152 149 146 145 145 144 142 139 137 135 132 127 120 110 100 87 72 58 46
181 236 216 94 35 116 137 209 193 180 172 15 221 180 217 266 216 176 196 222 213 230 247 213 202 212 208 188 177 187 195 185 168 166 193 202 197 195 192 184 183 186 190 193 193 188 187 191 192 186 186 188 188 186 183 180 178 173 171 171 169 167 166 164 162 159 156 156 153 150 150 149 148 146 142 139 136 132 124 113 102 88 73 59 46 35
142 228 224 115 86 173 182 206 203 186 173 173 186 184 187 197 249 254 230 197 224 233 235 248 253 210 173 183 181 183 187 174 164 181 203 202 194 189 182 180 183 189 194 193 188 181 182 187 187 185 189 193 192 191 187 183 180 177 176 176 174 173 170 168 166 164 161 160 159 157 156 154 152 149 144 140 136 130 120 108 98 87 75 62 49 38
176 201 193 148 183 203 202 222 244 214 189 187 192 190 188 179 161 204 219 179 186 251 230 256 272 218 134 286 198 157 159 160 166 192 203 190 182 177 176 184 188 191 195 191 178 171 177 184 183 184 190 193 193 191 189 186 184 182 182 180 179 178 176 174 171 170 168 165 164 164 161 158 156 151 147 142 137 132 125 120 114 106 98 87 74 59
129 122 189 174 203 208 201 28 336 294 298 265 238 208 194 190 182 200 217 170 160 227 259 340 287 295 108 277 359 71 50 19 8 225 217 187 169 174 182 184 189 195 190 176 166 170 180 184 182 185 190 192 192 192 191 191 189 188 187 185 184 183 181 179 176 175 173 171 170 169 166 162 159 154 150 147 145 144 140 137 133 126 124 122 111 87
98 169 200 194 205 119 70 128 166 10 309 245 243 217 203 209 198 206 228 149 181 198 159 196 245 229 167 199 37 20 345 309 261 228 215 198 164 176 185 183 185 189 176 165 168 176 182 184 185 189 191 191 190 190 190 192 193 193 191 190 188 187 185 183 181 180 178 176 174 172 169 166 162 158 157 157 157 155 151 149 148 147 149 153 146 114
164 181 183 183 202 199 191 199 203 196 199 224 224 191 202 207 169 128 90 140 229 201 169 203 238 188 159 121 38 333 303 263 245 223 206 199 183 180 183 183 185 182 177 177 179 181 183 187 192 194 192 189 187 187 189 193 196 196 196 194 192 190 189 188 186 185 183 181 178 175 172 170 167 165 166 166 165 162 162 164 167 169 171 173 178 191
175 177 176 187 204 207 205 209 211 189 174 215 205 179 200 199 179 173 168 198 227 179 167 210 231 160 120 342 272 239 243 243 233 212 206 208 197 184 177 181 183 183 186 186 184 184 186 190 195 195 191 187 186 187 190 194 197 198 199 198 196 194 193 193 192 189 187 185 181 178 177 175 174 174 174 172 171 172 176 180 183 187 191 196 214 249
159 187 193 203 213 214 216 224 160 126 153 198 194 185 199 200 191 189 198 210 196 142 197 219 210 193 204 205 221 216 208 224 218 190 202 211 201 190 179 181 185 187 191 187 185 187 188 193 197 195 191 187 187 190 194 196 198 199 200 200 200 200 199 198 196 193 191 189 187 186 186 185 184 183 180 179 181 184 189 194 197 203 210 223 245 268
115 215 210 214 224 225 231 269 171 158 184 200 190 189 199 196 191 196 211 205 139 153 234 196 156 215 213 181 198 209 200 215 209 187 197 197 189 184 175 180 187 191 194 191 193 196 196 199 197 192 190 187 188 193 196 199 201 201 202 203 203 204 203 203 200 197 196 195 194 196 196 196 195 191 188 189 192 196 201 204 209 214 224 243 262 275
176 224 217 214 229 232 170 129 213 190 198 201 192 195 194 188 190 198 213 206 157 204 241 157 159 219 216 167 190 200 193 200 190 181 184 166 164 169 169 180 190 194 197 197 202 204 202 202 193 188 189 188 189 194 196 199 203 204 205 206 207 207 207 207 204 201 201 200 201 204 205 205 202 198 197 199 204 208 211 213 217 223 235 251 266 277
191 224 200 191 228 233 201 175 201 185 193 208 205 205 198 193 194 196 208 208 196 223 241 154 182 229 208 157 188 187 171 173 148 144 153 153 164 169 175 189 195 197 200 202 208 208 204 202 194 188 189 189 193 196 195 197 203 206 207 210 211 212 211 209 206 204 204 204 206 209 211 211 208 206 207 209 214 218 219 221 224 229 241 254 266 276
201 206 138 135 224 231 201 175 181 188 200 217 228 223 208 190 186 196 209 207 208 231 243 232 248 250 191 153 171 142 124 129 137 159 168 170 173 172 181 194 196 199 203 207 211 208 203 200 192 188 191 194 196 195 194 199 205 209 212 214 214 214 213 210 207 206 207 209 211 213 214 214 214 214 215 217 222 224 224 226 229 233 243 254 265 274
196 199 107 148 219 228 192 179 187 175 204 257 249 234 210 173 164 192 209 203 203 218 225 232 250 249 190 145 139 136 153 162 165 171 175 182 179 175 184 191 193 199 202 204 207 206 204 199 193 194 197 198 197 198 202 207 210 212 214 214 214 214 212 210 208 209 211 213 215 215 216 218 218 219 221 223 226 228 228 231 233 237 244 253 263 270
183 188 162 181 210 231 193 178 172 127 137 251 243 221 199 185 181 191 210 213 206 202 204 219 235 234 166 149 157 166 181 188 185 180 179 181 178 181 187 187 190 196 194 196 200 200 202 200 199 201 201 201 204 207 211 212 212 213 215 214 214 214 211 210 210 212 215 216 218 218 219 221 222 223 225 226 228 230 231 232 235 239 245 251 260 267
178 187 194 190 203 226 176 148 143 168 214 242 248 196 189 193 193 195 210 214 207 203 206 214 213 170 154 164 176 183 189 194 193 189 182 173 176 184 194 198 199 192 186 194 196 196 202 201 202 205 207 210 213 214 215 215 214 216 218 217 216 214 211 211 212 215 218 219 220 221 223 225 226 226 228 228 229 231 232 234 236 239 243 249 257 265
177 188 196 187 187 183 137 140 166 214 224 249 351 303 196 195 194 201 215 215 205 208 217 222 202 172 163 169 174 175 177 163 152 202 206 195 181 175 187 204 202 189 190 200 199 197 198 196 199 206 212 216 218 216 216 218 218 219 220 218 216 214 212 213 214 217 220 221 223 224 226 227 228 228 229 229 229 230 232 234 235 238 242 248 256 265
177 187 185 172 170 137 154 179 196 239 223 91 13 356 62 113 172 198 226 230 213 208 212 222 225 197 146 142 122 102 122 107 58 247 220 206 192 182 191 198 187 185 193 193 192 196 200 202 205 208 211 214 214 213 215 217 217 216 216 216 215 215 214 215 216 219 221 223 225 227 228 229 229 229 229 229 229 230 231 233 234 237 241 248 255 263
189 189 181 195 190 146 181 207 235 336 280 168 151 194 175 144 160 179 218 234 212 200 199 213 224 200 136 123 113 101 108 103 295 250 209 193 202 200 200 190 168 182 192 190 202 211 211 209 206 204 204 202 202 205 207 209 211 210 210 212 213 214 215 215 218 221 223 225 228 230 231 231 231 230 230 229 229 230 231 232 234 237 242 248 255 262
206 195 190 204 197 130 167 213 237 273 247 194 153 187 204 154 138 156 205 242 194 187 187 197 213 199 148 120 125 131 128 153 249 242 184 183 197 191 193 202 180 184 195 201 209 206 199 197 194 192 192 190 192 197 198 199 200 201 204 208 209 210 212 214 219 224 226 228 231 232 233 233 232 231 231 231 232 232 232 232 233 237 243 248 255 261
107 146 199 209 191 156 191 214 213 226 239 106 117 158 284 274 125 114 101 265 186 182 184 187 202 190 150 138 150 147 146 203 239 232 156 175 188 178 187 201 188 191 209 209 200 191 186 185 182 181 183 185 188 189 187 190 192 194 199 204 205 206 210 215 221 225 227 230 233 234 235 235 234 234 234 235 235 234 232 232 234 238 243 248 254 260
138 148 201 212 205 189 203 221 229 237 266 72 139 145 263 264 133 120 209 263 179 179 185 183 190 176 143 143 152 160 181 210 233 213 137 154 170 175 188 194 183 195 210 208 198 191 186 181 177 179 183 187 189 186 183 186 190 194 199 202 204 207 212 218 223 225 228 231 233 234 235 236 236 236 236 236 235 232 230 231 233 237 242 248 253 258
153 150 185 212 218 210 211 224 257 261 231 162 174 182 192 214 147 172 214 278 132 173 190 178 176 153 138 151 168 187 202 195 80 84 115 133 151 172 186 192 194 200 206 206 200 193 186 185 187 191 194 195 191 188 187 188 191 196 199 201 204 208 214 219 223 225 227 229 231 233 234 234 234 235 235 233 231 228 227 229 232 237 242 248 253 258
159 145 156 202 207 213 222 239 270 269 198 131 116 327 226 176 175 188 185 79 143 177 190 189 173 151 155 177 190 184 132 93 95 115 139 153 157 158 164 174 188 197 200 202 202 196 192 194 197 201 204 202 196 194 194 193 194 198 200 202 207 213 216 219 221 224 227 228 229 230 230 231 231 230 229 228 225 224 226 228 232 237 242 247 253 258
157 148 175 196 179 148 210 223 236 267 181 137 122 98 246 211 173 135 110 72 120 163 176 189 183 172 177 189 194 164 115 121 152 149 154 171 159 142 157 173 186 194 193 195 201 203 201 202 205 206 208 207 203 201 199 198 198 200 203 208 214 218 218 220 223 225 226 226 227 227 227 227 227 226 224 223 222 223 226 229 233 238 243 247 253 258
177 165 183 200 178 157 191 212 214 230 171 160 146 152 189 181 139 134 138 128 146 175 180 189 191 193 193 188 180 163 140 158 187 170 169 187 172 147 163 180 191 198 199 202 207 209 207 209 213 214 213 211 209 205 203 204 204 204 208 215 220 221 221 223 225 225 224 224 224 224 225 224 223 223 222 221 222 223 226 230 234 239 243 248 253 258
208 174 168 191 180 157 166 205 318 44 168 169 146 55 145 135 113 140 135 131 192 192 185 191 189 191 195 186 166 158 166 191 197 183 183 191 189 182 178 185 195 201 205 209 213 215 216 218 220 220 217 216 214 210 209 211 210 210 217 223 224 224 225 226 224 222 222 222 222 221 222 220 220 220 220 221 222 224 227 231 235 239 244 249 253 258
355 38 40 77 158 127 63 115 70 13 175 167 125 24 105 117 103 133 137 154 192 178 179 195 188 176 179 177 162 163 189 196 187 192 203 199 196 193 184 192 207 210 211 213 216 221 224 224 224 223 222 221 219 216 215 217 216 219 226 230 228 227 228 226 223 221 220 220 219 219 219 218 217 218 219 221 223 226 229 233 236 240 245 249 253 258
280 137 126 201 192 187 172 147 113 17 213 182 154 59 66 94 111 148 167 186 182 170 180 192 163 151 162 172 176 184 192 183 180 196 207 202 204 203 191 202 214 213 213 217 223 226 225 222 222 224 225 226 224 222 221 222 224 227 231 232 231 230 227 224 222 220 219 218 217 217 217 217 218 218 219 221 223 226 229 233 236 240 244 248 253 258
156 144 154 211 209 154 110 164 340 327 289 238 186 151 152 148 151 177 220 249 127 152 161 130 101 133 157 180 194 194 184 177 185 196 201 202 208 205 202 214 217 215 219 225 228 228 224 221 223 226 228 229 229 228 227 228 230 232 232 232 233 232 227 224 223 222 221 219 217 216 217 217 219 219 220 222 224 226 230 234 237 241 246 250 254 258
125 149 162 162 142 104 43 223 214 286 294 235 224 218 196 175 167 178 190 156 106 128 131 130 157 161 168 183 189 190 196 197 195 198 202 206 205 201 213 221 220 220 226 232 234 232 227 225 227 229 231 233 233 232 233 234 235 236 235 234 234 231 227 225 224 222 220 218 216 216 217 216 218 220 221 223 226 229 233 238 241 245 250 253 255 258
150 172 157 128 155 186 192 179 176 159 141 197 213 215 195 172 163 169 178 190 189 168 158 167 176 168 199 209 187 184 204 213 204 200 205 211 207 206 215 220 220 223 231 236 239 237 234 233 234 234 237 240 239 237 239 241 242 242 241 238 235 232 229 226 222 219 217 216 215 216 216 215 217 219 220 223 227 231 235 240 243 247 251 253 255 258
183 187 166 152 183 218 188 171 170 157 106 195 207 207 187 163 161 180 194 198 197 184 172 172 172 177 213 224 204 194 204 216 204 198 205 226 224 218 218 219 218 223 231 236 236 236 237 238 238 237 241 245 245 243 243 246 247 248 247 243 238 234 230 226 222 218 217 216 216 216 215 215 216 218 220 223 228 232 236 240 244 248 252 255 257 260